THA8882 VHHH-VTBS

Flight info

Callsign THA8882
Flight time N/A
Altitude 40000
Route PECAN V10 SIKOU/K0891S1220 A202 ASSAD/K0889F400 A202 VILAO/N0479F400 A202 RAMEI W42 PAKRI Y13 RUKSA EASTE1C
Aircraft A359/H-SDE2E3GHIJ1J3J4J5LM1ORWXY/LB1D1

Departure

Time N/A
Airport Hong Kong International Airport (VHHH)

Arrival

Time 2026-05-05 19:07
Airport Suvarnabhumi Airport (VTBS)
Time Latitude Longitude Altitude Speed Heading
2026-05-05 18:46 14.62901 102.12903 33364 ft 465 kts 252°
2026-05-05 18:46 14.61920 102.09739 32836 ft 461 kts 252°
2026-05-05 18:46 14.60948 102.06602 32305 ft 458 kts 252°
2026-05-05 18:47 14.59978 102.03482 31777 ft 454 kts 252°
2026-05-05 18:47 14.59027 102.00421 31262 ft 451 kts 252°
2026-05-05 18:47 14.58062 101.97313 30746 ft 447 kts 252°
2026-05-05 18:47 14.57128 101.94309 30227 ft 444 kts 252°
2026-05-05 18:48 14.56175 101.91253 29719 ft 440 kts 252°
2026-05-05 18:48 14.55092 101.88356 29217 ft 437 kts 248°
2026-05-05 18:48 14.53903 101.85483 28710 ft 434 kts 247°
2026-05-05 18:48 14.52707 101.82594 28180 ft 430 kts 247°
2026-05-05 18:49 14.51563 101.79801 27681 ft 427 kts 247°
2026-05-05 18:49 14.50418 101.76979 27162 ft 424 kts 248°
2026-05-05 18:49 14.49286 101.74179 26650 ft 422 kts 248°
2026-05-05 18:49 14.48165 101.71397 26140 ft 419 kts 248°
2026-05-05 18:50 14.47052 101.68630 25614 ft 416 kts 248°
2026-05-05 18:50 14.45950 101.65882 25107 ft 413 kts 248°
2026-05-05 18:50 14.44853 101.63151 24572 ft 410 kts 248°
2026-05-05 18:50 14.43766 101.60442 24065 ft 408 kts 248°
2026-05-05 18:51 14.42682 101.57745 23547 ft 405 kts 248°
2026-05-05 18:51 14.41608 101.55068 23031 ft 402 kts 247°
2026-05-05 18:51 14.40537 101.52405 22509 ft 400 kts 248°
2026-05-05 18:51 14.39474 101.49760 21994 ft 398 kts 248°
2026-05-05 18:52 14.38417 101.47132 21466 ft 396 kts 247°
2026-05-05 18:52 14.37364 101.44515 20956 ft 394 kts 247°
2026-05-05 18:52 14.36318 101.41916 20432 ft 392 kts 247°
2026-05-05 18:52 14.35275 101.39328 19920 ft 389 kts 247°
2026-05-05 18:53 14.34239 101.36757 19389 ft 387 kts 247°
2026-05-05 18:53 14.33226 101.34242 18857 ft 385 kts 247°
2026-05-05 18:53 14.32157 101.31720 18279 ft 381 kts 243°
2026-05-05 18:53 14.30885 101.29366 17323 ft 373 kts 239°
2026-05-05 18:54 14.29551 101.27085 16234 ft 370 kts 238°
2026-05-05 18:54 14.28207 101.24843 15214 ft 365 kts 238°
2026-05-05 18:54 14.26879 101.22640 14195 ft 359 kts 238°
2026-05-05 18:54 14.25567 101.20476 13374 ft 350 kts 238°
2026-05-05 18:55 14.24313 101.18412 12960 ft 329 kts 238°
2026-05-05 18:55 14.23130 101.16463 12366 ft 316 kts 238°
2026-05-05 18:55 14.21957 101.14535 11258 ft 320 kts 238°
2026-05-05 18:55 14.20761 101.12573 10083 ft 326 kts 237°
2026-05-05 18:56 14.19550 101.10582 9282 ft 330 kts 237°
2026-05-05 18:56 14.18372 101.08647 8993 ft 306 kts 237°
2026-05-05 18:56 14.17261 101.06822 8747 ft 297 kts 237°
2026-05-05 18:56 14.16167 101.05027 8497 ft 295 kts 237°
2026-05-05 18:57 14.15074 101.03235 8242 ft 294 kts 237°
2026-05-05 18:57 14.13987 101.01456 7992 ft 292 kts 237°
2026-05-05 18:57 14.12905 100.99684 7740 ft 292 kts 237°
2026-05-05 18:57 14.11827 100.97922 7481 ft 290 kts 237°
2026-05-05 18:58 14.10762 100.96174 7292 ft 283 kts 237°
2026-05-05 18:58 14.09710 100.94449 7102 ft 287 kts 237°
2026-05-05 18:58 14.08646 100.92706 6799 ft 287 kts 237°
2026-05-05 18:58 14.07590 100.90971 6446 ft 285 kts 238°
2026-05-05 18:59 14.06540 100.89252 6190 ft 279 kts 237°
2026-05-05 18:59 14.05528 100.87600 6050 ft 267 kts 237°
2026-05-05 18:59 14.04561 100.86019 5916 ft 255 kts 237°
2026-05-05 18:59 14.03635 100.84494 5708 ft 249 kts 237°
2026-05-05 19:00 14.02651 100.83047 5440 ft 246 kts 226°
2026-05-05 19:00 14.01263 100.82092 5311 ft 245 kts 201°
2026-05-05 19:00 13.99635 100.81600 5298 ft 243 kts 193°
2026-05-05 19:00 13.97989 100.81191 5298 ft 244 kts 193°
2026-05-05 19:01 13.96342 100.80780 5266 ft 245 kts 193°
2026-05-05 19:01 13.95159 100.80493 5138 ft 244 kts 193°
2026-05-05 19:01 13.93683 100.80114 4868 ft 240 kts 194°
2026-05-05 19:01 13.92071 100.79677 4508 ft 239 kts 194°
2026-05-05 19:02 13.90458 100.79247 4134 ft 239 kts 194°
2026-05-05 19:02 13.88845 100.78824 3779 ft 239 kts 193°
2026-05-05 19:02 13.87244 100.78399 3454 ft 237 kts 194°
2026-05-05 19:02 13.85664 100.77981 3130 ft 230 kts 194°
2026-05-05 19:03 13.84159 100.77582 2835 ft 216 kts 194°
2026-05-05 19:03 13.82760 100.77214 2572 ft 200 kts 194°
2026-05-05 19:03 13.81467 100.76872 2337 ft 186 kts 194°
2026-05-05 19:03 13.80251 100.76550 2065 ft 174 kts 194°
2026-05-05 19:04 13.79125 100.76253 1842 ft 161 kts 194°
2026-05-05 19:04 13.78083 100.75976 1636 ft 149 kts 194°
2026-05-05 19:04 13.77111 100.75719 1444 ft 139 kts 195°
2026-05-05 19:04 13.76197 100.75477 1275 ft 135 kts 194°
2026-05-05 19:05 13.75285 100.75249 1109 ft 135 kts 193°
2026-05-05 19:05 13.74387 100.75018 959 ft 135 kts 195°
2026-05-05 19:05 13.73477 100.74768 732 ft 134 kts 194°
2026-05-05 19:05 13.72578 100.74519 550 ft 134 kts 196°
2026-05-05 19:06 13.71676 100.74275 386 ft 134 kts 193°
2026-05-05 19:06 13.70769 100.74048 204 ft 133 kts 194°
2026-05-05 19:06 13.69872 100.73807 47 ft 132 kts 194°
2026-05-05 19:06 13.69043 100.73591 21 ft 96 kts 194°
2026-05-05 19:07 13.68631 100.73482 22 ft 38 kts 194°
2026-05-05 19:07 13.68459 100.73454 21 ft 37 kts 182°
2026-05-05 19:07 13.68288 100.73475 19 ft 2 kts 179°
2026-05-05 19:07 13.68170 100.73508 24 ft 24 kts 164°
2026-05-05 19:08 13.68008 100.73509 20 ft 21 kts 195°
2026-05-05 19:08 13.67875 100.73472 23 ft 20 kts 195°
2026-05-05 19:08 13.67734 100.73433 23 ft 21 kts 195°
2026-05-05 19:08 13.67604 100.73449 22 ft 19 kts 125°
2026-05-05 19:09 13.67562 100.73583 23 ft 21 kts 105°
2026-05-05 19:09 13.67536 100.73683 21 ft 21 kts 102°
2026-05-05 19:09 13.67632 100.73787 22 ft 12 kts 15°
2026-05-05 19:09 13.67689 100.73804 21 ft 13 kts 16°
2026-05-05 19:10 13.67786 100.73833 21 ft 16 kts 16°
2026-05-05 19:10 13.67897 100.73860 19 ft 17 kts 14°
2026-05-05 19:10 13.68017 100.73891 22 ft 19 kts 14°
2026-05-05 19:10 13.68128 100.73943 24 ft 16 kts 64°
2026-05-05 19:11 13.68181 100.74028 24 ft 12 kts 34°
2026-05-05 19:11 13.68213 100.74109 23 ft 12 kts 103°
2026-05-05 19:11 13.68188 100.74202 21 ft 15 kts 104°
2026-05-05 19:11 13.68161 100.74315 20 ft 18 kts 104°
2026-05-05 19:12 13.68128 100.74448 23 ft 21 kts 104°
2026-05-05 19:12 13.68092 100.74596 19 ft 22 kts 104°
2026-05-05 19:12 13.68055 100.74746 22 ft 14 kts 104°
2026-05-05 19:12 13.68027 100.74855 23 ft 17 kts 107°
2026-05-05 19:13 13.68021 100.74949 20 ft 8 kts 44°
2026-05-05 19:13 13.68066 100.74964 21 ft 0 kts 17°
2026-05-05 19:13 13.68069 100.74964 19 ft 1 kts 16°
2026-05-05 19:13 13.68080 100.74968 19 ft 3 kts 15°
2026-05-05 19:14 13.68087 100.74969 19 ft 1 kts 15°
2026-05-05 19:14 13.68092 100.74971 19 ft 0 kts 14°